(60540) = 2000 EZ61

Discovered at Socorro on 2000-03-10 by LINEAR.

Orbit

Orbit type: Main Belt

Note: WebGL enabled browser required.

epoch2024-03-31.0
epoch JD2460400.5
perihelion date2023-04-09.52362
perihelion JD2460044.02362
argument of perihelion (°)276.17677
ascending node (°)178.46907
inclination (°)4.92953
eccentricity0.1183884
perihelion distance (AU)1.9901393
Tisserand w.r.t. Jupiter3.6
ΔV w.r.t. Earth (km/sec)8.8
semimajor axis (AU)2.2573877
mean anomaly (°)103.59185
mean daily motion (°/day)0.29059950
aphelion distance (AU)2.525
period (years)3.39
P-vector [x]-0.08109467
P-vector [y]0.94507755
P-vector [z]0.31662608
Q-vector [x]-0.99670376
Q-vector [y]-0.07762552
Q-vector [z]-0.02357743
absolute magnitude16.5
phase slope0.15
uncertainty0
referenceE2024-H23
observations used959
oppositions17
arc length (days)9846
first opposition used1997
last opposition used2024
residual rms (arc-secs)0.66
perturbers coarse indicatorM-v
perturbers precise indicator003Ek
first observation date used1997-05-02.0
last observation date used2024-04-16.0
computer nameMPCLINUX
JD of orbit computation2456877.839967
perihelion JD uncertainty (days)6.3469E-05
argument of perihelion uncertainty (°)4.4945E-05
ascending node uncertainty (°)4.0686E-05
inclination uncertainty (°)4.2991E-06
eccentricity uncertainty 3.0131E-08
perihelion distance uncertainty (AU)6.7576E-08
Minimum Orbit Intersection Distances (in AU)
for orbit epoch: 2460400.5, reference: E2024-H23
Mercury1.68504
Venus1.27656
Earth1.01442
Mars0.41928
Jupiter2.6253
Saturn7.05569
Uranus16.2468
Neptune27.6264

Observations

963 total observations over interval: 1997 05 02.36407 – 2024 03 16.577097
These data are available for download (format description).

Date (UT) J2000 RA J2000 Dec Magn Location Ref
1997 05 02.36407 15 47 43.08 -13 15 02.4 19.4 V 691 – Steward Observatory, Kitt Peak-Spacewatch MPS 16907
1997 05 02.39064 15 47 41.57 -13 14 55.0 20.0 V 691 – Steward Observatory, Kitt Peak-Spacewatch MPS 16907
1997 05 02.41575 15 47 40.56 -13 14 43.9 19.9 V 691 – Steward Observatory, Kitt Peak-Spacewatch MPS 16907
1997 05 10.34246 15 40 00.02 -12 33 38.3 19.5 V 691 – Steward Observatory, Kitt Peak-Spacewatch MPS 16907
1997 05 10.36397 15 39 58.66 -12 33 32.0 19.6 V 691 – Steward Observatory, Kitt Peak-Spacewatch MPS 16907
1997 05 10.38571 15 39 57.31 -12 33 25.5 19.7 V 691 – Steward Observatory, Kitt Peak-Spacewatch MPS 16907
1998 08 30.43504 23 50 42.99 +00 34 18.3 20.3 V 691 – Steward Observatory, Kitt Peak-Spacewatch MPS 16907
1998 08 30.45651 23 50 42.07 +00 34 09.6 19.8 V 691 – Steward Observatory, Kitt Peak-Spacewatch MPS 16907
1998 08 30.47748 23 50 41.15 +00 34 00.6 19.3 V 691 – Steward Observatory, Kitt Peak-Spacewatch MPS 16907
1998 09 15.19015 23 37 47.25 -01 30 27.7 20.4 V 691 – Steward Observatory, Kitt Peak-Spacewatch MPS 79657
1998 09 15.21088 23 37 46.09 -01 30 38.3 19.9 V 691 – Steward Observatory, Kitt Peak-Spacewatch MPS 79657
1998 09 15.23162 23 37 44.92 -01 30 49.1 19.6 V 691 – Steward Observatory, Kitt Peak-Spacewatch MPS 79657
1998 09 20.36517 23 33 05.80 -02 15 24.3 19.9 V 691 – Steward Observatory, Kitt Peak-Spacewatch MPS 79657
1998 09 20.39108 23 33 04.35 -02 15 37.6 20.4 V 691 – Steward Observatory, Kitt Peak-Spacewatch MPS 79657
1998 09 20.41795 23 33 02.82 -02 15 51.8 20.4 V 691 – Steward Observatory, Kitt Peak-Spacewatch MPS 79657
1998 09 21.31870 23 32 14.31 -02 23 41.6 20.0 V 691 – Steward Observatory, Kitt Peak-Spacewatch MPS 79657
1998 09 21.34086 23 32 13.07 -02 23 53.1 20.0 V 691 – Steward Observatory, Kitt Peak-Spacewatch MPS 79657
1998 09 21.36229 23 32 11.84 -02 24 04.8 19.6 V 691 – Steward Observatory, Kitt Peak-Spacewatch MPS 79657
2000 02 26.37285 12 24 02.07 -03 23 29.4 19.7 V 691 – Steward Observatory, Kitt Peak-Spacewatch MPS 12370
2000 02 26.39400 12 24 01.29 -03 23 21.4 19.4 V 691 – Steward Observatory, Kitt Peak-Spacewatch MPS 12370
2000 02 26.41491 12 24 00.52 -03 23 13.2 19.0 V 691 – Steward Observatory, Kitt Peak-Spacewatch MPS 12370
2000 03 10.38307 12 14 37.71 -01 44 24.5 18.8   704 – Lincoln Laboratory ETS, New Mexico MPS 11443
2000 03 10.39568 12 14 37.04 -01 44 17.7 18.8   704 – Lincoln Laboratory ETS, New Mexico MPS 11443
2000 03 10.41139 12 14 36.17 -01 44 09.8 19.1   704 – Lincoln Laboratory ETS, New Mexico MPS 11443
2000 03 10.42927 12 14 35.24 -01 44 00.7 19.6   704 – Lincoln Laboratory ETS, New Mexico MPS 11443
2000 03 10.44188 12 14 34.55 -01 43 53.6 19.7   704 – Lincoln Laboratory ETS, New Mexico MPS 11443
2000 03 11.38261 12 13 46.69 -01 35 49.6 19.1   704 – Lincoln Laboratory ETS, New Mexico MPS 11443
2000 03 11.39746 12 13 45.78 -01 35 40.5 19.3   704 – Lincoln Laboratory ETS, New Mexico MPS 11443
2000 03 11.41387 12 13 44.97 -01 35 32.6 18.8   704 – Lincoln Laboratory ETS, New Mexico MPS 11443
2000 03 11.42663 12 13 44.31 -01 35 25.8 18.7   704 – Lincoln Laboratory ETS, New Mexico MPS 11443
2000 03 11.44531 12 13 43.29 -01 35 15.9 19.5   704 – Lincoln Laboratory ETS, New Mexico MPS 11443
2000 03 14.26917 12 11 15.75 -01 10 32.4 19.7 R 703 – Catalina Sky Survey MPS 11443
2000 03 14.28504 12 11 14.82 -01 10 24.3 19.1 R 703 – Catalina Sky Survey MPS 11443
2000 03 14.30096 12 11 13.97 -01 10 16.7 19.4 R 703 – Catalina Sky Survey MPS 11443
2000 03 14.31683 12 11 13.06 -01 10 08.4 18.6 R 703 – Catalina Sky Survey MPS 11443
2000 04 04.26971 11 52 53.31 +01 51 27.8 18.8 R 688 – Lowell Observatory, Anderson Mesa Station MPS 12370
2000 04 04.32126 11 52 50.81 +01 51 51.9   688 – Lowell Observatory, Anderson Mesa Station MPS 12370
2000 04 05.19646 11 52 11.25 +01 58 32.6 19.3   704 – Lincoln Laboratory ETS, New Mexico MPS 12370
2000 04 05.21103 11 52 10.58 +01 58 39.2 19.4   704 – Lincoln Laboratory ETS, New Mexico MPS 12370
2000 04 05.22562 11 52 09.90 +01 58 46.0 19.6   704 – Lincoln Laboratory ETS, New Mexico MPS 12370
2000 04 05.24021 11 52 09.14 +01 58 53.4 19.4   704 – Lincoln Laboratory ETS, New Mexico MPS 12370
2000 04 05.25480 11 52 08.45 +01 58 59.4 20.0   704 – Lincoln Laboratory ETS, New Mexico MPS 12370
2000 04 06.19561 11 51 26.83 +02 06 02.0 19.3   704 – Lincoln Laboratory ETS, New Mexico MPS 12370
2000 04 06.20964 11 51 26.20 +02 06 08.8 19.2   704 – Lincoln Laboratory ETS, New Mexico MPS 12370
2000 04 06.22367 11 51 25.56 +02 06 13.7 19.3   704 – Lincoln Laboratory ETS, New Mexico MPS 12370
2000 04 07.23403 11 50 42.00 +02 13 37.4 18.9 R 699 – Lowell Observatory-LONEOS MPS 12370
2000 04 07.25462 11 50 41.08 +02 13 46.1   699 – Lowell Observatory-LONEOS MPS 12370
2000 04 07.27523 11 50 40.20 +02 13 54.9   699 – Lowell Observatory-LONEOS MPS 12370
2000 04 07.29587 11 50 39.22 +02 14 04.9   699 – Lowell Observatory-LONEOS MPS 12370
2000 04 11.17819 11 48 04.99 +02 40 39.9 19.6 V 691 – Steward Observatory, Kitt Peak-Spacewatch MPS 12370
2000 04 11.19887 11 48 04.16 +02 40 47.8 19.8 V 691 – Steward Observatory, Kitt Peak-Spacewatch MPS 12370
2000 04 11.21961 11 48 03.34 +02 40 55.7 20.2 V 691 – Steward Observatory, Kitt Peak-Spacewatch MPS 12370
2000 04 26.15582 11 41 49.42 +03 53 31.4 19.8 V 691 – Steward Observatory, Kitt Peak-Spacewatch MPS 14161
2000 04 26.17662 11 41 49.15 +03 53 35.3 20.1 V 691 – Steward Observatory, Kitt Peak-Spacewatch MPS 14161
2000 04 26.19745 11 41 48.81 +03 53 40.1 19.9 V 691 – Steward Observatory, Kitt Peak-Spacewatch MPS 14161
2003 01 01.34649 07 21 00.30 +12 49 03.3 18.2   704 – Lincoln Laboratory ETS, New Mexico MPS 69608
2003 01 01.36182 07 20 59.30 +12 49 05.3 18.4   704 – Lincoln Laboratory ETS, New Mexico MPS 69608
2003 01 01.37709 07 20 58.35 +12 49 07.5 18.6   704 – Lincoln Laboratory ETS, New Mexico MPS 69608
2003 01 01.39258 07 20 57.42 +12 49 08.7 19.0   704 – Lincoln Laboratory ETS, New Mexico MPS 69608
2003 01 01.40798 07 20 56.38 +12 49 11.1 19.3   704 – Lincoln Laboratory ETS, New Mexico MPS 69608
2003 01 02.30078 07 20 02.24 +12 51 15.1 18.9   704 – Lincoln Laboratory ETS, New Mexico MPS 69608
2003 01 02.31585 07 20 01.24 +12 51 17.1 18.6   704 – Lincoln Laboratory ETS, New Mexico MPS 69608
2003 01 02.33090 07 20 00.25 +12 51 19.0 18.4   704 – Lincoln Laboratory ETS, New Mexico MPS 69608
2003 01 02.34618 07 19 59.29 +12 51 21.5 18.3   704 – Lincoln Laboratory ETS, New Mexico MPS 69608
2003 01 02.36120 07 19 58.35 +12 51 24.7 19.7   704 – Lincoln Laboratory ETS, New Mexico MPS 69608
2003 01 03.28048 07 19 01.89 +12 53 38.3 18.4   704 – Lincoln Laboratory ETS, New Mexico MPS 69608
2003 01 03.29493 07 19 00.94 +12 53 40.7 18.8   704 – Lincoln Laboratory ETS, New Mexico MPS 69608
2003 01 03.30923 07 18 59.96 +12 53 43.0 18.8   704 – Lincoln Laboratory ETS, New Mexico MPS 69608
2003 01 03.32361 07 18 59.08 +12 53 45.3 19.0   704 – Lincoln Laboratory ETS, New Mexico MPS 69608
2003 01 03.33808 07 18 58.14 +12 53 47.3 18.6   704 – Lincoln Laboratory ETS, New Mexico MPS 69608
2003 01 07.30545 07 14 49.50 +13 04 56.8 18.2   704 – Lincoln Laboratory ETS, New Mexico MPS 69608
2003 01 07.32316 07 14 48.30 +13 04 59.8 18.6   704 – Lincoln Laboratory ETS, New Mexico MPS 69608
2003 01 07.33841 07 14 47.34 +13 05 02.7 18.5   704 – Lincoln Laboratory ETS, New Mexico MPS 69608
2003 01 07.35599 07 14 46.13 +13 05 05.7 18.9   704 – Lincoln Laboratory ETS, New Mexico MPS 69608
2003 01 07.37087 07 14 45.15 +13 05 08.3 19.2   704 – Lincoln Laboratory ETS, New Mexico MPS 69608
2003 01 27.23508 06 55 56.97 +14 26 10.4 18.4   704 – Lincoln Laboratory ETS, New Mexico MPS 71195
2003 01 27.25039 06 55 56.18 +14 26 15.3 18.9   704 – Lincoln Laboratory ETS, New Mexico MPS 71195
2003 01 27.26581 06 55 55.50 +14 26 19.1 18.6   704 – Lincoln Laboratory ETS, New Mexico MPS 71195
2003 01 27.28119 06 55 54.77 +14 26 23.2 19.0   704 – Lincoln Laboratory ETS, New Mexico MPS 71195
2003 01 27.29652 06 55 54.06 +14 26 27.7 18.8   704 – Lincoln Laboratory ETS, New Mexico MPS 71195
2005 09 23.40349 02 14 12.99 +10 15 59.5 19.5 V 691 – Steward Observatory, Kitt Peak-Spacewatch MPS 142377
2005 09 23.42085 02 14 12.59 +10 15 53.7 19.5 V 691 – Steward Observatory, Kitt Peak-Spacewatch MPS 142377
